Location: Evergreen Manor
(41.4083°N, 81.4939°W)
Time: 20:17:39
(UTC+00:00)

STARLINK 1056 - Pass Details

Date: 11 December 2019
Orbit: 549 x 551 km, 53.0° (Epoch: 26 January)

Event Time Altitude Azimuth Distance (km) Brightness Sun altitude
Exits shadow 10:52:56 50° 299° (WNW) 748 3.8 -19.7°
Maximum altitude 10:54:02 82° 221° (SW) 592 3.6 -19.5°
Drops below altitude 10° 10:58:22 10° 133° (SE) 1,897 7.3 -18.7°
Sets 11:00:38 0° 132° (SE) 2,795 8.3 -18.3°
